This is the latest recevied weather packets stored in our database for station/object N3FAA. If no packets are shown the sender has not sent any weather packets the latest 10 day(s).
| Time | Temp. | Humidity | Pressure | Rain* | Wind** | Luminosity | Snow |
|---|---|---|---|---|---|---|---|
| 1777515370 | 19.44° C | 45% | 1010.8 hPa | 0 mm | - | 19 W/m² | - |
| 1777515066 | 19.44° C | 44% | 1010.9 hPa | 0 mm | - | 23 W/m² | - |
| 1777514763 | 20° C | 44% | 1010.9 hPa | 0 mm | - | 29 W/m² | - |
| 1777514460 | 20° C | 43% | 1010.7 hPa | 0 mm | - | 33 W/m² | - |
| 1777514156 | 20° C | 43% | 1010.6 hPa | 0 mm | - | 39 W/m² | - |
| 1777513854 | 20° C | 43% | 1010.6 hPa | 0 mm | - | 44 W/m² | - |
| 1777513550 | 20.56° C | 43% | 1010.7 hPa | 0 mm | - | 55 W/m² | - |
| 1777513247 | 21.11° C | 42% | 1010.6 hPa | 0 mm | - | 62 W/m² | - |
| 1777512943 | 21.11° C | 41% | 1010.5 hPa | 0 mm | - | 47 W/m² | - |
| 1777512640 | 21.11° C | 41% | 1010.6 hPa | 0 mm | - | 98 W/m² | - |
| 1777512337 | 21.67° C | 41% | 1010.6 hPa | 0 mm | - | 115 W/m² | - |
| 1777512033 | 22.22° C | 40% | 1010.6 hPa | 0 mm | - | 125 W/m² | - |
| 1777511732 | 22.22° C | 39% | 1010.5 hPa | 0 mm | - | 142 W/m² | - |
| 1777511429 | 22.78° C | 39% | 1010.6 hPa | 0 mm | - | 161 W/m² | - |
| 1777511126 | 22.78° C | 38% | 1010.6 hPa | 0 mm | - | 180 W/m² | - |
| 1777510821 | 22.78° C | 38% | 1010.5 hPa | 0 mm | - | 193 W/m² | - |
| 1777510518 | 22.78° C | 37% | 1010.4 hPa | 0 mm | - | 212 W/m² | - |
| 1777510215 | 23.33° C | 36% | 1010.2 hPa | 0 mm | - | 235 W/m² | - |
| 1777509911 | 23.89° C | 35% | 1010.5 hPa | 0 mm | - | 261 W/m² | - |
| 1777509606 | 23.89° C | 35% | 1010.4 hPa | 0 mm | - | 281 W/m² | - |
| 1777509304 | 24.44° C | 33% | 1010.4 hPa | 0 mm | - | 296 W/m² | - |
| 1777509001 | 25° C | 32% | 1010.3 hPa | 0 mm | - | 317 W/m² | - |
| 1777508698 | 24.44° C | 31% | 1010.2 hPa | 0 mm | - | 327 W/m² | - |
| 1777508395 | 24.44° C | 31% | 1010.1 hPa | 0 mm | - | 363 W/m² | - |
| 1777508092 | 24.44° C | 32% | 1010.1 hPa | 0 mm | - | 377 W/m² | - |
* Rain latest hour (hover to see other rain measurements)
** Current wind speed in m/s (hover to see current wind gust speed)